Wind_Speed
46 46 47 48 48 48 49 50 51 51 50 51 52 52 53 54 55 56 56 57 58 58 59 59 59 59 60 60 60 60 60 60 60 60 59 59 58 58
48 49 49 50 50 50 51 51 52 53 53 53 54 55 55 56 57 57 58 59 60 60 61 62 62 62 62 63 62 63 62 62 62 62 61 61 60 60
49 50 50 51 51 52 52 53 54 55 54 54 55 56 57 59 59 60 61 62 63 63 63 64 64 64 65 65 65 65 65 65 64 63 63 62 62 61
51 52 52 53 53 54 55 55 56 56 57 57 57 59 60 61 62 63 64 65 65 65 66 66 66 66 66 66 67 66 66 66 65 65 64 64 63 62
53 53 54 54 55 55 56 56 57 58 59 59 60 61 62 64 65 65 66 67 67 67 67 68 68 68 68 68 68 68 67 67 66 66 65 63 62 61
54 55 55 56 56 57 57 57 58 59 60 61 62 62 64 65 67 68 68 68 69 70 70 69 69 69 69 69 68 68 67 67 66 64 63 62 61 60
54 55 55 56 56 57 57 58 59 60 61 62 63 64 65 66 67 68 69 69 69 69 70 69 69 69 68 68 67 66 65 64 63 62 61 61 60 59
54 54 55 56 57 57 58 60 61 61 62 63 64 65 65 66 67 68 69 69 68 67 67 67 68 67 66 66 65 64 63 62 62 61 60 60 59 58
54 55 55 56 57 58 59 60 61 62 63 63 64 64 65 66 67 67 67 66 66 65 66 64 64 63 63 63 63 63 62 62 61 60 59 59 58 57
53 54 55 56 57 58 58 59 60 61 63 63 64 64 64 65 66 66 66 66 64 63 63 62 60 60 60 60 60 60 60 59 59 58 57 57 55 54
54 55 55 56 57 58 59 59 60 60 62 63 64 64 64 65 65 65 64 64 62 60 60 60 58 58 57 57 57 57 56 56 55 54 53 52 50 50
54 54 55 56 57 58 59 59 59 59 60 61 62 63 63 63 64 64 63 62 61 59 57 58 56 56 55 53 53 52 51 51 50 49 48 47 46 46
54 54 55 56 56 57 58 59 59 59 60 60 60 60 60 61 61 60 59 58 57 56 54 54 53 53 53 51 49 48 48 46 45 44 43 43 42 42
54 54 54 55 56 57 58 58 58 59 58 58 58 57 57 57 56 55 54 53 53 52 51 51 51 50 49 47 44 43 42 41 41 40 40 39 39 39
53 54 54 55 56 56 57 57 57 56 56 55 55 54 54 53 53 51 51 50 49 49 49 48 48 46 45 42 40 38 36 36 36 37 37 37 36 35
53 54 54 55 56 56 56 55 55 55 54 54 53 52 51 50 49 48 48 48 47 46 46 45 43 42 40 37 35 33 32 32 32 32 32 32 32 32
54 54 54 54 55 55 54 54 53 53 52 51 50 48 48 47 47 46 46 45 44 43 41 40 38 37 35 33 31 30 29 28 28 28 28 28 28 29
54 53 53 54 53 53 52 51 50 49 49 48 47 46 45 45 44 43 43 42 41 40 38 36 35 33 31 30 29 28 27 26 26 26 26 25 25 25
52 52 52 52 51 50 49 48 46 46 45 45 45 44 44 43 42 41 41 40 39 37 35 34 32 30 28 26 25 26 25 25 24 24 24 23 23 23
51 50 50 50 49 47 46 44 43 43 43 43 43 42 41 40 39 39 39 37 36 34 32 30 29 27 26 24 23 23 23 23 22 22 22 22 21 22
49 49 48 47 46 45 43 42 42 42 42 41 40 40 38 37 37 37 36 34 32 30 28 26 25 24 23 22 20 20 21 21 21 20 20 20 20 20
46 46 45 44 43 41 40 40 40 40 39 38 38 36 35 35 34 33 31 29 28 27 25 23 22 21 21 20 20 19 20 20 20 19 19 19 18 18
44 43 41 40 39 38 38 37 37 37 37 36 35 34 33 32 30 29 28 26 25 23 21 20 20 20 20 20 19 19 18 17 17 17 17 17 17 17
Wind_Direction
278 279 279 280 281 281 281 282 283 283 282 283 283 284 284 285 285 285 284 284 284 285 285 285 284 284 284 283 283 282 282 282 282 281 280 279 278 277
279 279 280 280 282 282 283 284 284 284 284 283 283 284 284 285 285 285 285 285 285 285 285 285 284 284 283 283 282 282 282 281 281 280 279 279 278 276
280 281 281 281 282 283 284 285 285 286 285 285 285 285 285 285 286 286 286 286 286 286 285 285 284 284 283 282 282 281 281 281 280 280 279 278 278 276
282 282 282 282 283 284 285 285 286 286 286 285 285 285 285 286 286 286 286 286 286 286 285 285 284 284 283 283 282 282 282 281 280 279 278 278 277 276
282 282 282 283 283 284 285 286 286 286 286 286 286 286 286 286 287 287 287 287 286 286 285 285 284 284 284 283 282 282 282 281 280 279 278 277 276 275
282 283 283 283 284 284 285 286 286 286 287 287 287 287 287 287 287 287 286 286 286 286 285 285 285 284 284 283 283 282 281 280 280 278 277 276 275 274
284 283 283 284 284 285 285 286 287 287 287 288 288 288 288 289 288 287 287 287 287 286 286 285 285 285 284 283 283 282 281 280 278 277 276 275 274 273
284 284 284 285 286 286 287 287 287 288 288 289 289 289 290 290 290 289 289 288 288 287 287 286 285 284 284 283 282 281 280 278 277 276 276 275 274 273
285 285 285 286 286 287 287 287 288 289 289 290 291 291 291 291 291 292 291 291 290 289 288 286 285 285 284 284 283 282 280 279 277 276 275 274 273 272
286 286 286 287 287 287 287 288 289 289 290 290 292 293 293 293 293 293 292 292 291 290 289 288 287 285 285 284 284 283 281 279 278 276 275 273 272 271
287 288 288 288 288 288 289 289 290 290 290 291 292 293 294 294 294 294 293 293 292 291 290 290 288 287 286 285 285 283 282 280 278 277 275 273 271 270
288 289 289 289 290 290 291 291 292 292 291 292 292 293 294 295 294 294 294 293 293 292 291 290 289 288 287 286 285 284 282 280 278 277 274 272 271 270
288 289 290 290 291 291 292 293 293 293 293 293 293 294 294 295 295 295 294 294 294 294 293 291 290 290 289 287 285 283 282 280 278 276 274 273 271 269
290 290 290 291 292 292 293 294 294 294 294 294 294 295 295 296 296 296 295 295 296 296 294 293 292 292 290 288 285 283 281 279 277 276 274 272 271 269
290 291 292 292 293 293 293 294 294 294 295 295 296 296 297 297 297 296 296 296 296 297 296 295 293 292 291 289 286 284 281 278 277 276 274 272 270 267
290 291 292 292 293 294 294 294 294 295 295 295 296 297 297 297 297 296 296 297 298 298 297 295 294 292 291 288 286 284 281 279 277 276 274 272 270 266
291 291 292 292 293 293 294 294 294 294 295 296 296 297 297 297 297 297 298 299 299 299 297 295 294 293 291 289 285 284 282 279 278 276 274 272 269 266
292 292 293 293 293 293 293 293 293 294 294 295 296 297 297 297 297 298 299 299 300 300 298 295 293 292 290 288 285 283 282 280 279 277 275 272 268 265
293 293 294 294 294 294 294 293 293 293 294 295 296 297 297 297 298 298 299 299 300 299 298 295 292 290 289 286 283 283 282 281 280 278 275 272 268 265
293 294 294 294 294 294 294 293 293 293 294 295 296 297 297 297 298 298 299 299 299 298 297 295 292 290 289 287 284 282 282 282 281 278 275 272 270 267
293 294 294 294 294 293 293 293 293 294 294 295 296 297 296 296 298 299 299 299 298 298 296 294 292 290 289 287 286 283 282 284 284 280 275 272 269 266
293 294 294 294 293 292 292 293 294 294 294 295 295 295 295 296 298 299 299 299 299 299 296 294 292 291 289 287 286 285 285 286 286 283 279 274 271 268
294 294 293 293 293 293 293 294 295 295 295 294 294 294 294 295 297 298 299 299 300 298 296 293 291 291 290 289 288 287 287 285 284 283 281 277 274 271
Height
5706 5705 5703 5701 5699 5698 5696 5695 5694 5693 5692 5688 5684 5680 5677 5674 5672 5669 5666 5663 5661 5658 5655 5652 5649 5646 5643 5641 5639 5636 5634 5633 5631 5629 5628 5627 5626 5626
5694 5692 5690 5689 5687 5685 5683 5681 5679 5678 5677 5675 5671 5667 5664 5660 5657 5654 5651 5648 5644 5641 5638 5635 5632 5629 5626 5623 5621 5619 5616 5614 5612 5611 5610 5609 5608 5607
5681 5680 5678 5676 5674 5672 5669 5667 5664 5662 5661 5660 5656 5652 5649 5645 5641 5638 5634 5631 5627 5624 5620 5617 5614 5610 5607 5604 5602 5599 5597 5595 5593 5592 5590 5589 5589 5589
5669 5667 5664 5662 5660 5657 5655 5652 5649 5646 5645 5644 5641 5637 5633 5628 5624 5621 5617 5613 5609 5605 5601 5598 5594 5591 5588 5585 5582 5579 5577 5575 5573 5572 5571 5570 5569 5569
5655 5653 5650 5648 5645 5642 5639 5637 5634 5630 5627 5626 5624 5620 5616 5611 5607 5603 5599 5594 5590 5586 5581 5578 5574 5570 5567 5564 5561 5559 5557 5555 5553 5551 5550 5550 5549 5549
5640 5638 5635 5633 5630 5627 5624 5621 5617 5614 5610 5607 5605 5602 5598 5593 5588 5583 5580 5575 5571 5566 5561 5557 5553 5549 5546 5543 5540 5538 5535 5533 5531 5530 5530 5529 5529 5529
5626 5623 5620 5617 5614 5611 5608 5605 5601 5597 5593 5590 5587 5583 5579 5574 5568 5563 5559 5555 5551 5545 5540 5536 5531 5528 5524 5521 5518 5515 5513 5511 5510 5510 5509 5509 5510 5510
5611 5608 5605 5602 5598 5595 5592 5588 5584 5580 5576 5572 5568 5564 5560 5554 5548 5543 5538 5534 5532 5528 5520 5517 5511 5507 5503 5500 5497 5494 5492 5491 5490 5490 5490 5490 5490 5490
5596 5593 5590 5586 5583 5580 5576 5572 5568 5563 5558 5554 5550 5545 5540 5535 5529 5524 5518 5513 5510 5505 5499 5497 5492 5488 5484 5480 5477 5475 5472 5471 5470 5470 5470 5470 5470 5471
5581 5578 5574 5571 5567 5563 5560 5556 5552 5547 5542 5536 5532 5527 5521 5515 5509 5504 5498 5494 5490 5485 5478 5476 5473 5469 5465 5462 5458 5455 5453 5451 5450 5450 5450 5450 5451 5452
5566 5562 5559 5555 5551 5547 5543 5540 5536 5531 5525 5520 5514 5508 5503 5497 5490 5485 5480 5474 5472 5468 5461 5456 5454 5451 5448 5445 5441 5437 5434 5432 5432 5432 5432 5432 5433 5434
5552 5548 5543 5539 5535 5530 5526 5522 5519 5515 5510 5504 5498 5492 5486 5479 5473 5466 5461 5456 5452 5450 5445 5439 5436 5432 5431 5430 5425 5421 5418 5416 5415 5415 5415 5416 5417 5418
5537 5533 5528 5523 5519 5514 5510 5505 5501 5497 5492 5487 5482 5476 5470 5463 5457 5451 5445 5439 5435 5432 5428 5423 5420 5416 5412 5412 5410 5406 5403 5401 5400 5400 5400 5401 5402 5403
5522 5518 5513 5508 5504 5499 5494 5489 5484 5479 5475 5470 5465 5460 5454 5448 5442 5436 5431 5426 5421 5417 5412 5408 5404 5400 5397 5395 5394 5392 5389 5388 5387 5387 5387 5388 5388 5389
5506 5502 5498 5493 5488 5484 5479 5473 5468 5464 5459 5455 5450 5445 5439 5433 5428 5423 5418 5413 5408 5403 5399 5394 5390 5386 5383 5381 5380 5378 5377 5376 5375 5375 5375 5376 5376 5377
5491 5487 5482 5478 5473 5469 5464 5459 5453 5448 5444 5440 5435 5430 5425 5420 5415 5410 5405 5400 5396 5392 5386 5381 5377 5374 5371 5369 5368 5367 5366 5365 5365 5364 5364 5365 5366 5367
5476 5472 5468 5463 5459 5454 5449 5444 5439 5434 5430 5425 5421 5417 5412 5407 5403 5398 5393 5388 5384 5380 5376 5371 5366 5363 5361 5359 5358 5357 5356 5356 5355 5355 5355 5356 5356 5357
5460 5457 5452 5448 5444 5439 5435 5430 5426 5421 5416 5412 5408 5404 5400 5395 5391 5387 5382 5377 5373 5369 5365 5361 5357 5355 5353 5351 5349 5348 5347 5347 5347 5347 5347 5347 5348 5348
5445 5441 5437 5433 5429 5424 5420 5416 5412 5408 5404 5400 5396 5392 5388 5384 5380 5375 5371 5367 5363 5359 5355 5351 5348 5346 5345 5344 5343 5340 5340 5339 5339 5339 5339 5339 5340 5341
5430 5427 5423 5419 5415 5411 5407 5403 5399 5396 5392 5388 5384 5380 5376 5372 5369 5365 5361 5357 5353 5349 5346 5343 5340 5338 5337 5336 5336 5335 5333 5332 5332 5332 5332 5332 5333 5334
5417 5413 5409 5405 5401 5397 5394 5390 5387 5384 5380 5376 5373 5369 5366 5362 5359 5355 5351 5347 5344 5341 5338 5336 5333 5331 5330 5329 5329 5329 5327 5326 5325 5325 5325 5326 5326 5327
5403 5399 5396 5392 5388 5385 5381 5378 5375 5372 5369 5365 5362 5359 5356 5353 5349 5346 5342 5339 5336 5334 5331 5329 5327 5325 5324 5324 5323 5322 5322 5320 5319 5318 5318 5319 5319 5320
5390 5386 5383 5379 5376 5373 5370 5367 5364 5361 5358 5355 5352 5349 5346 5344 5341 5338 5335 5332 5330 5327 5325 5324 5322 5320 5319 5318 5317 5317 5316 5315 5314 5314 5313 5312 5313 5313